#timestamp,LO_Frequency,Hit,StdDev 
1511107215.5,286047006.8,N
1511107235.3,286047007.9,N
1511107255.2,286047006.3,N
1511107275.9,286047003.3,N
1511107295.7,286047005.7,N
1511107315.6,286047007.4,N
1511107335.4,286047005.7,N
1511107355.2,286047004.4,N
1511107375.0,286047004.0,N
1511107375.9,286047004.0,N
1511107395.8,286047001.7,N
1511107415.6,286047000.9,N
1511107435.4,286046998.1,N
1511107455.3,286046999.2,N
1511107475.1,286046997.0,N
1511107495.8,286046997.9,N
1511107515.7,286046995.7,N
1511107535.5,286046999.0,N
1511107555.3,286046996.0,N
1511107575.2,286046989.5,Y
1511107595.9,286046986.6,P
1511107615.7,286046986.1,N
1511107635.6,286046984.1,N
1511107655.4,286046985.7,N
1511107675.2,286046988.1,N
1511107695.1,286046991.3,N
1511107696.0,286046991.3,N
1511107715.8,286046992.9,N
1511107735.6,286046994.0,N
1511107755.5,286046994.8,N
1511107775.3,286046991.3,N
1511107795.1,286046987.9,N
1511107815.8,286046990.9,N
1511107835.7,286046989.1,N
1511107855.5,286046985.6,Y
1511107875.3,286047000.4,P
1511107895.2,286047004.1,N
1511107915.0,286047005.9,N
1511107915.9,286047005.9,N
1511107935.7,286047003.5,N
1511107955.6,286047001.5,N
1511107975.4,286047004.0,N
1511107995.2,286047001.6,N
1511108015.1,286047002.0,N
1511108016.0,286047002.0,N
1511108035.8,286047002.7,N
1511108055.6,286046999.7,N
1511108075.5,286047000.2,N
1511108095.3,286047000.9,N
1511108115.1,286047000.9,N
1511108135.9,286047002.1,N
1511108155.7,286047004.3,N
1511108175.5,286047002.7,N
1511108195.3,286047006.9,N
1511108215.2,286047003.4,N
1511108235.0,286047001.8,N
1511108235.9,286047001.8,N
1511108255.7,286047000.8,N
1511108275.6,286047000.4,N
1511108295.4,286046996.6,N
1511108315.2,286046995.3,N
1511108335.1,286046997.6,N
1511108336.0,286046997.6,N
1511108355.8,286046997.0,N
1511108375.6,286046995.7,N
1511108395.5,286046989.9,Y
1511108415.3,286046987.5,P
1511108435.1,286046990.9,N
1511108455.9,286046990.5,N
1511108475.7,286046991.8,N
1511108495.5,286046991.9,N
1511108515.4,286046996.3,N
1511108535.2,286046999.1,N
1511108555.0,286047000.2,N
1511108555.9,286047000.2,N
1511108575.8,286046998.5,N
1511108595.6,286047003.3,N
1511108615.4,286047003.9,N
1511108635.2,286047005.6,N
1511108655.1,286047003.9,N
1511108656.0,286047003.9,N
1511108675.8,286047001.1,N
1511108695.6,286047000.7,N
1511108715.5,286046997.8,N
1511108735.3,286046995.1,N
1511108755.1,286046995.7,N
1511108775.9,286046993.3,N
1511108795.7,286046994.6,N
1511108815.5,286046991.7,N
1511108835.4,286046991.9,N
1511108855.2,286046994.6,N
1511108875.0,286046993.7,N
1511108875.9,286046993.7,N
1511108895.8,286046995.3,N
1511108915.6,286046999.5,N
1511108935.4,286046996.5,N
1511108955.2,286046998.0,N
1511108975.1,286046996.6,N
1511108976.0,286046996.6,N
1511108995.8,286046995.8,N
1511109015.6,286046997.9,N
1511109035.5,286046996.2,N
1511109055.3,286046996.1,N
1511109075.1,286046994.7,N
1511109095.9,286046994.3,N
1511109115.7,286046994.2,N
1511109135.5,286046995.1,N
1511109155.4,286046996.8,N
1511109175.2,286046994.9,N
1511109195.0,286046996.7,N
1511109195.9,286046996.7,N
1511109215.8,286046995.4,N
1511109235.6,286046998.3,N
1511109255.4,286046996.2,N
1511109275.3,286046993.8,Y
1511109295.1,286046997.0,P
1511109296.0,286046997.0,P
1511109315.8,286046999.3,N
1511109335.7,286047001.0,N
1511109355.5,286046998.1,N
1511109375.3,286046996.4,N
1511109395.1,286046996.5,N
1511109415.9,286047000.4,N
1511109435.7,286047002.4,N
1511109455.5,286047001.3,N
1511109475.4,286046997.0,N
1511109495.2,286046998.4,N
1511109515.0,286046996.5,N
1511109515.9,286046996.5,N
1511109535.8,286046996.8,N
1511109555.6,286046996.6,N
1511109575.4,286046999.2,N
1511109595.3,286046998.6,N
1511109615.1,286047003.6,N
1511109616.0,286047003.6,N
1511109635.8,286047007.4,Y
1511109655.7,286047006.3,P
1511109675.5,286047007.5,N
1511109695.3,286047001.4,N
1511109715.2,286047003.0,N
1511109735.9,286047005.7,N
1511109755.7,286047003.0,N
1511109775.6,286047004.4,N
1511109795.4,286047003.7,N
1511109815.2,286047005.4,N
1511109835.0,286047005.2,N
1511109835.9,286047005.2,N
1511109855.8,286047003.6,N
1511109875.6,286047003.6,N
1511109895.4,286047004.9,N
1511109915.3,286047003.2,N
1511109935.1,286047003.8,N
1511109955.8,286047004.9,N
1511109975.7,286047004.9,N
1511109995.5,286047007.5,Y
1511110015.3,286047001.1,P
1511110035.2,286046996.7,N
1511110055.9,286046997.2,N
1511110075.7,286046998.7,N
1511110095.6,286046999.2,N
1511110115.4,286047001.9,N
1511110135.2,286047002.5,N
1511110155.1,286047003.1,N
1511110156.0,286047003.1,N
1511110175.8,286047001.6,N
1511110195.6,286047000.9,N
1511110215.4,286046997.3,N
1511110235.3,286046999.4,N
1511110255.1,286046997.2,N
1511110275.8,286046997.9,N
1511110295.7,286047001.2,N
1511110315.5,286047000.0,N
1511110335.3,286046999.5,N
1511110355.2,286046998.5,N
1511110375.9,286046999.1,N
1511110395.7,286047000.2,N
1511110415.6,286047002.3,N
1511110435.4,286047000.0,N
1511110455.2,286047002.4,N
1511110475.0,286047001.5,N
1511110476.0,286047001.5,N
1511110495.8,286047001.2,N
1511110515.6,286046996.7,N
1511110535.4,286046999.7,N
1511110555.3,286047002.8,N
1511110575.1,286047002.1,N
1511110595.8,286047003.9,N
1511110615.7,286046999.0,N
1511110635.5,286046996.8,N
1511110655.3,286047000.3,N
1511110675.2,286047001.5,N
1511110695.9,286047003.7,N
1511110715.7,286047000.3,N
1511110735.6,286047003.9,N
1511110755.4,286047003.5,N
1511110775.2,286047004.8,N
1511110795.1,286047004.1,N
1511110796.0,286047004.1,N
